Voltar ao catálogo

FENGYUN 1C DEB

AtivoSSO
NORAD 41829·DEBRIS·🇨🇳 China

Lançado May 10, 1999 de Taiyuan Satellite Launch Center

Loading…

Próximas Passagens (próximas 24 horas)

TLE

AtualizadoSource: Space-Track

Época: Sep 13, 2026, 03:12 UTC

1 41829U 99025EYG 26256.13333490  .00001972  00000-0  81895-3 0  9999
2 41829  98.7287 329.5159 0056297 141.4530 219.0691 14.26742547512185

Acompanhe FENGYUN 1C DEB em tempo real com AllMySat

Download on the App Store